Location: ????????
(38.4362°N, 22.8767°E)
Time: 03:48:30
(UTC+00:00)

FENGYUN 1C DEB - Pass Details

Date: 17 October 2025
Orbit: 841 x 1273 km, 99.2° (Epoch: 16 November)

Event Time Altitude Azimuth Distance (km) Brightness Sun altitude
Rises 03:15:49 0° 12° (NNE) 3,404 ? -17.1°
Reaches altitude 10° 03:18:08 10° 12° (NNE) 2,470 ? -16.7°
Maximum altitude 03:23:33 81° 286° (WNW) 879 ? -15.6°
Drops below altitude 10° 03:29:14 10° 199° (SSW) 2,587 ? -14.5°
Sets 03:31:43 0° 199° (SSW) 3,576 ? -14.0°
